DLH1MA LSGG-EDDS

Flight info

Callsign DLH1MA
Flight time 0h 40m
Altitude 30000
Route SOSAL N871 DITON T163 ZUE T125 ROMIR N851 HEUSE Y715 ARSUT T125 REUTL REUTL1W
Aircraft A321/M-SDE3FGHIRWY/LB1

Departure

Time 2026-05-07 18:03
Airport Geneva International Airport (LSGG)

Arrival

Time 2026-05-07 18:43
Airport Stuttgart Airport (EDDS)
Time Latitude Longitude Altitude Speed Heading
2026-05-07 17:43 46.22904 6.10146 1389 ft 0 kts 136°
2026-05-07 17:57 46.22907 6.10142 1388 ft 3 kts 137°
2026-05-07 17:57 46.22920 6.10125 1387 ft 4 kts 146°
2026-05-07 17:57 46.22952 6.10107 1384 ft 4 kts 187°
2026-05-07 17:57 46.22968 6.10115 1385 ft 0 kts 225°
2026-05-07 17:59 46.22967 6.10115 1385 ft 0 kts 225°
2026-05-07 18:00 46.22950 6.10089 1385 ft 8 kts 225°
2026-05-07 18:00 46.22905 6.10007 1389 ft 12 kts 250°
2026-05-07 18:00 46.22882 6.09873 1396 ft 15 kts 230°
2026-05-07 18:00 46.22805 6.09759 1394 ft 17 kts 225°
2026-05-07 18:01 46.22720 6.09635 1404 ft 17 kts 226°
2026-05-07 18:01 46.22633 6.09506 1410 ft 19 kts 225°
2026-05-07 18:01 46.22557 6.09344 1406 ft 20 kts 255°
2026-05-07 18:01 46.22574 6.09173 1406 ft 16 kts 300°
2026-05-07 18:02 46.22647 6.09198 1407 ft 1 kts 46°
2026-05-07 18:02 46.22654 6.09208 1409 ft 14 kts 45°
2026-05-07 18:02 46.22919 6.09596 1402 ft 92 kts 45°
2026-05-07 18:03 46.23521 6.10475 1386 ft 152 kts 45°
2026-05-07 18:03 46.24314 6.11656 1712 ft 173 kts 45°
2026-05-07 18:03 46.25168 6.12972 2267 ft 187 kts 45°
2026-05-07 18:03 46.26124 6.14386 2524 ft 207 kts 45°
2026-05-07 18:04 46.27182 6.15932 2684 ft 231 kts 45°
2026-05-07 18:04 46.28388 6.17693 3068 ft 251 kts 45°
2026-05-07 18:04 46.29620 6.19490 3812 ft 257 kts 45°
2026-05-07 18:04 46.30858 6.21298 4578 ft 261 kts 45°
2026-05-07 18:05 46.32139 6.23176 5360 ft 265 kts 45°
2026-05-07 18:05 46.33445 6.25100 6104 ft 271 kts 46°
2026-05-07 18:05 46.34780 6.27068 6789 ft 277 kts 46°
2026-05-07 18:05 46.36097 6.29161 7442 ft 284 kts 54°
2026-05-07 18:06 46.37081 6.31652 8139 ft 288 kts 69°
2026-05-07 18:06 46.37690 6.34424 8853 ft 291 kts 76°
2026-05-07 18:06 46.38248 6.37217 9555 ft 296 kts 76°
2026-05-07 18:06 46.38839 6.40158 10201 ft 305 kts 76°
2026-05-07 18:07 46.39455 6.43222 10359 ft 328 kts 75°
2026-05-07 18:07 46.40111 6.46487 10547 ft 348 kts 75°
2026-05-07 18:07 46.40790 6.49875 11047 ft 356 kts 75°
2026-05-07 18:07 46.41493 6.53382 11667 ft 360 kts 75°
2026-05-07 18:08 46.42193 6.56889 12308 ft 364 kts 75°
2026-05-07 18:08 46.42889 6.60387 12930 ft 368 kts 74°
2026-05-07 18:08 46.43604 6.63972 13563 ft 372 kts 74°
2026-05-07 18:08 46.44539 6.67485 14132 ft 376 kts 63°
2026-05-07 18:09 46.45929 6.70704 14694 ft 378 kts 51°
2026-05-07 18:09 46.47596 6.73681 15256 ft 381 kts 50°
2026-05-07 18:09 46.49280 6.76678 15846 ft 384 kts 50°
2026-05-07 18:09 46.50973 6.79707 16431 ft 387 kts 50°
2026-05-07 18:10 46.52655 6.82731 16999 ft 390 kts 50°
2026-05-07 18:10 46.54380 6.85844 17571 ft 394 kts 50°
2026-05-07 18:10 46.56103 6.88952 18123 ft 397 kts 49°
2026-05-07 18:10 46.57848 6.92093 18623 ft 400 kts 49°
2026-05-07 18:11 46.59605 6.95250 19111 ft 403 kts 49°
2026-05-07 18:11 46.60776 6.97354 19438 ft 404 kts 49°
2026-05-07 18:11 46.63150 7.01630 20068 ft 408 kts 49°
2026-05-07 18:11 46.64939 7.04857 20529 ft 410 kts 49°
2026-05-07 18:12 46.66734 7.08099 20990 ft 413 kts 49°
2026-05-07 18:12 46.68521 7.11331 21448 ft 415 kts 49°
2026-05-07 18:12 46.70339 7.14619 21899 ft 418 kts 49°
2026-05-07 18:12 46.72168 7.17930 22354 ft 421 kts 49°
2026-05-07 18:13 46.74007 7.21266 22794 ft 423 kts 49°
2026-05-07 18:13 46.75851 7.24615 23250 ft 425 kts 50°
2026-05-07 18:13 46.77715 7.28005 23684 ft 428 kts 50°
2026-05-07 18:13 46.79580 7.31403 24044 ft 431 kts 50°
2026-05-07 18:14 46.81459 7.34827 24406 ft 434 kts 50°
2026-05-07 18:14 46.83346 7.38274 24761 ft 436 kts 50°
2026-05-07 18:14 46.85246 7.41747 25104 ft 439 kts 50°
2026-05-07 18:14 46.87158 7.45245 25456 ft 442 kts 50°
2026-05-07 18:15 46.89080 7.48771 25798 ft 445 kts 50°
2026-05-07 18:15 46.91011 7.52322 26163 ft 447 kts 50°
2026-05-07 18:15 46.92950 7.55895 26497 ft 450 kts 50°
2026-05-07 18:15 46.94900 7.59500 26880 ft 452 kts 50°
2026-05-07 18:16 46.96850 7.63115 27229 ft 454 kts 50°
2026-05-07 18:16 46.98179 7.65581 27446 ft 456 kts 50°
2026-05-07 18:16 47.00792 7.70424 27884 ft 460 kts 49°
2026-05-07 18:16 47.02106 7.72856 28098 ft 461 kts 49°
2026-05-07 18:17 47.04106 7.76557 28413 ft 464 kts 49°
2026-05-07 18:17 47.06117 7.80274 28747 ft 467 kts 49°
2026-05-07 18:17 47.08139 7.84018 29045 ft 469 kts 49°
2026-05-07 18:17 47.10168 7.87791 29355 ft 472 kts 49°
2026-05-07 18:18 47.12218 7.91612 29687 ft 474 kts 49°
2026-05-07 18:18 47.14163 7.95505 29983 ft 478 kts 56°
2026-05-07 18:18 47.15914 7.99599 30029 ft 467 kts 56°
2026-05-07 18:19 47.19304 8.07591 30035 ft 457 kts 56°
2026-05-07 18:19 47.22673 8.15507 30034 ft 456 kts 56°
2026-05-07 18:20 47.26044 8.23425 30038 ft 456 kts 56°
2026-05-07 18:20 47.29382 8.31311 30044 ft 456 kts 55°
2026-05-07 18:21 47.33347 8.38520 30055 ft 452 kts 45°
2026-05-07 18:21 47.37525 8.45443 30050 ft 451 kts 45°
2026-05-07 18:22 47.41688 8.52351 30052 ft 451 kts 46°
2026-05-07 18:22 47.45853 8.59306 30051 ft 451 kts 46°
2026-05-07 18:23 47.49994 8.66243 30062 ft 450 kts 46°
2026-05-07 18:23 47.52057 8.69713 29732 ft 448 kts 46°
2026-05-07 18:23 47.54076 8.73108 29091 ft 444 kts 46°
2026-05-07 18:23 47.56062 8.76450 28462 ft 441 kts 46°
2026-05-07 18:24 47.58083 8.79850 27838 ft 437 kts 46°
2026-05-07 18:24 47.59923 8.83432 27223 ft 436 kts 56°
2026-05-07 18:24 47.61515 8.87243 26624 ft 433 kts 56°
2026-05-07 18:24 47.63091 8.91029 26037 ft 430 kts 57°
2026-05-07 18:25 47.64654 8.94785 25460 ft 426 kts 57°
2026-05-07 18:25 47.66120 8.98307 24941 ft 423 kts 57°
2026-05-07 18:25 47.67683 9.02053 24408 ft 419 kts 56°
2026-05-07 18:25 47.69400 9.05365 23899 ft 413 kts 45°
2026-05-07 18:26 47.71550 9.08140 23349 ft 407 kts 33°
2026-05-07 18:26 47.73992 9.10206 22739 ft 402 kts 21°
2026-05-07 18:26 47.76616 9.11523 22137 ft 396 kts 10°
2026-05-07 18:26 47.79328 9.12125 21562 ft 390 kts
2026-05-07 18:27 47.82051 9.12564 20980 ft 388 kts
2026-05-07 18:27 47.84690 9.12980 20428 ft 385 kts
2026-05-07 18:27 47.87343 9.13408 19890 ft 382 kts
2026-05-07 18:27 47.90008 9.13850 19332 ft 379 kts
2026-05-07 18:28 47.92591 9.14283 18813 ft 376 kts
2026-05-07 18:28 47.95175 9.14716 18291 ft 373 kts
2026-05-07 18:28 47.97708 9.15141 17721 ft 370 kts
2026-05-07 18:28 48.00251 9.15567 17162 ft 366 kts
2026-05-07 18:29 48.02744 9.16324 16619 ft 365 kts 15°
2026-05-07 18:29 48.05068 9.17803 16087 ft 364 kts 27°
2026-05-07 18:29 48.07148 9.19945 15590 ft 362 kts 39°
2026-05-07 18:29 48.09006 9.22464 15092 ft 359 kts 41°
2026-05-07 18:30 48.10835 9.24894 14609 ft 354 kts 36°
2026-05-07 18:30 48.12962 9.26767 14123 ft 348 kts 25°
2026-05-07 18:30 48.15114 9.28370 13650 ft 343 kts 24°
2026-05-07 18:30 48.17249 9.29945 13102 ft 340 kts 24°
2026-05-07 18:31 48.19370 9.31508 12562 ft 338 kts 24°
2026-05-07 18:31 48.21453 9.33043 12030 ft 336 kts 24°
2026-05-07 18:31 48.23549 9.34589 11504 ft 335 kts 24°
2026-05-07 18:31 48.25629 9.36124 11124 ft 331 kts 24°
2026-05-07 18:32 48.27707 9.37658 11056 ft 333 kts 24°
2026-05-07 18:32 48.29789 9.39172 11064 ft 332 kts 24°
2026-05-07 18:32 48.31870 9.40683 11064 ft 332 kts 24°
2026-05-07 18:32 48.33949 9.42190 11064 ft 332 kts 24°
2026-05-07 18:33 48.36014 9.43689 10714 ft 328 kts 24°
2026-05-07 18:33 48.38057 9.45175 10379 ft 321 kts 24°
2026-05-07 18:33 48.40017 9.46603 10251 ft 306 kts 24°
2026-05-07 18:33 48.41882 9.47969 9989 ft 300 kts 24°
2026-05-07 18:34 48.43749 9.49340 9602 ft 297 kts 24°
2026-05-07 18:34 48.45629 9.50600 9206 ft 293 kts 17°
2026-05-07 18:34 48.47566 9.51520 8805 ft 291 kts 14°
2026-05-07 18:34 48.49491 9.52373 8430 ft 288 kts 14°
2026-05-07 18:35 48.51413 9.53219 8066 ft 286 kts 14°
2026-05-07 18:35 48.53311 9.54051 7701 ft 283 kts 14°
2026-05-07 18:35 48.55190 9.54870 7327 ft 281 kts 14°
2026-05-07 18:35 48.57072 9.55685 6933 ft 279 kts 14°
2026-05-07 18:36 48.58927 9.56487 6578 ft 277 kts 14°
2026-05-07 18:36 48.60755 9.57277 6229 ft 274 kts 14°
2026-05-07 18:36 48.62587 9.58025 5871 ft 271 kts
2026-05-07 18:36 48.64453 9.58100 5501 ft 267 kts 355°
2026-05-07 18:37 48.66298 9.57908 5123 ft 265 kts 354°
2026-05-07 18:37 48.68119 9.57687 4762 ft 263 kts 354°
2026-05-07 18:37 48.69927 9.57462 4402 ft 260 kts 354°
2026-05-07 18:37 48.71719 9.57113 4062 ft 256 kts 341°
2026-05-07 18:38 48.73182 9.55713 4016 ft 247 kts 311°
2026-05-07 18:38 48.73945 9.53516 4015 ft 229 kts 285°
2026-05-07 18:38 48.74032 9.51207 4023 ft 215 kts 262°
2026-05-07 18:38 48.73794 9.49103 4030 ft 203 kts 261°
2026-05-07 18:39 48.73565 9.47116 4026 ft 179 kts 261°
2026-05-07 18:39 48.73325 9.45374 3976 ft 161 kts 257°
2026-05-07 18:39 48.73042 9.43797 3818 ft 150 kts 256°
2026-05-07 18:39 48.72764 9.42291 3648 ft 148 kts 257°
2026-05-07 18:40 48.72491 9.40817 3464 ft 146 kts 257°
2026-05-07 18:40 48.72213 9.39329 3267 ft 146 kts 257°
2026-05-07 18:40 48.71937 9.37856 3077 ft 146 kts 256°
2026-05-07 18:40 48.71659 9.36373 2866 ft 146 kts 257°
2026-05-07 18:41 48.71386 9.34920 2674 ft 146 kts 257°
2026-05-07 18:41 48.71106 9.33431 2469 ft 147 kts 257°
2026-05-07 18:41 48.70825 9.31938 2269 ft 148 kts 256°
2026-05-07 18:41 48.70544 9.30442 2057 ft 148 kts 256°
2026-05-07 18:42 48.70265 9.28962 1847 ft 148 kts 257°
2026-05-07 18:42 48.69980 9.27452 1644 ft 149 kts 255°
2026-05-07 18:42 48.69691 9.25923 1448 ft 149 kts 255°
2026-05-07 18:42 48.69412 9.24445 1339 ft 148 kts 255°
2026-05-07 18:43 48.69146 9.23032 1289 ft 129 kts 253°
2026-05-07 18:43 48.68931 9.21899 1290 ft 95 kts 254°
2026-05-07 18:43 48.68775 9.21066 1286 ft 70 kts 253°
2026-05-07 18:43 48.68677 9.20530 1285 ft 35 kts 266°
2026-05-07 18:44 48.68697 9.20232 1286 ft 16 kts 283°
2026-05-07 18:44 48.68698 9.20222 1287 ft 0 kts 283°
2026-05-07 18:44 48.68701 9.20207 1285 ft 4 kts 283°
2026-05-07 18:44 48.68706 9.20172 1287 ft 1 kts 283°
2026-05-07 18:45 48.68707 9.20165 1288 ft 0 kts 283°
2026-05-07 18:45 48.68715 9.20120 1286 ft 9 kts 284°
2026-05-07 18:46 48.68749 9.20025 1288 ft 12 kts 309°
2026-05-07 18:46 48.68813 9.19920 1288 ft 15 kts 314°
2026-05-07 18:46 48.68886 9.19832 1287 ft 13 kts 276°
2026-05-07 18:46 48.68863 9.19691 1285 ft 15 kts 255°
2026-05-07 18:47 48.68833 9.19532 1285 ft 14 kts 254°
2026-05-07 18:47 48.68811 9.19407 1286 ft 8 kts 274°
2026-05-07 18:47 48.68854 9.19373 1286 ft 6 kts 346°
2026-05-07 18:47 48.68875 9.19364 1287 ft 0 kts 342°